Regional Weather Roundup
Issued by NWS

Home | Current Version | Previous Version | Text Only | Print | Product List | Glossary Off
Versions: 1 2 3 4 5 6 7 8 9 10 11 12 13 14 15 16 17 18 19 20 21 22 23 24 25 26 27 28 29 30 31 32 33 34 35 36 37 38 39 40 41 42 43 44 45 46 47 48 49 50

000
ASUS43 KDTX 281510
RWRMI
MICHIGAN HOURLY REGIONAL WEATHER ROUNDUP
NATIONAL WEATHER SERVICE DETROIT/PONTIAC MI
ISSUED BY NATIONAL WEATHER SERVICE GRAND RAPIDS MI
1100 AM EDT WED JUN 28 2017

NOTE: "FAIR" INDICATES FEW OR NO CLOUDS BELOW 12,000 FEET WITH NO
SIGNIFICANT WEATHER AND/OR OBSTRUCTION TO VISIBILITY.

MIZ047>049-052>055-059>063-066>070-074>076-081>083-281600-
SOUTHEAST LOWER MICHIGAN

CITY           SKY/WX    TMP DP  RH WIND       PRES   REMARKS
ADRIAN         SUNNY     72  49  44 SW13G20   30.11F
ALMA           CLOUDY    71  51  50 SW8       30.06S
ANN ARBOR      CLOUDY    72  52  49 S10       30.10F
BAD AXE        SUNNY     70  52  52 SW9       30.07S
DETROIT CITY   SUNNY     73  50  44 SW10G20   30.11S
DETROIT        PTSUNNY   72  50  45 SW13      30.11F
FLINT          SUNNY     72  48  42 SW15      30.08S
GROSSE ILE     MOSUNNY   70  56  61 S10       30.10F
HILLSDALE      SUNNY     70  48  46 S12       30.10S
HOWELL         CLOUDY    71  44  37 SW9       30.09F

CITY           SKY/WX    TMP DP  RH WIND       PRES   REMARKS
JACKSON        MOSUNNY   72  48  42 SW10      30.09F
LANSING        CLOUDY    74  48  39 S15       30.07F
MASON          CLOUDY    71  50  47 S5        30.08F
MONROE         SUNNY     72  49  44 SW9       30.10F
MT. CLEMENS    PTSUNNY   74  50  42 SW13G18   30.09R
PONTIAC        CLOUDY    72  48  42 SW8       30.08F
PORT HOPE        N/A     71  50  47 W9        30.04F
PORT HURON     SUNNY     72  50  46 S10       30.10S
TRI CITIES     MOSUNNY   71  53  52 SW15      30.05F
YPSILANTI      SUNNY     74  50  42 SW13      30.11S
$$
MIZ043>046-050>051-056>058-064>065-071>073-077>080-281600-
SOUTHWEST LOWER MICHIGAN

CITY           SKY/WX    TMP DP  RH WIND       PRES   REMARKS
BATTLE CREEK   CLOUDY    73  48  41 SW18      30.09S
BENTON HARBOR  CLOUDY    71  50  47 S12G20    30.04F
BIG RAPIDS     CLOUDY    69  47  46 SW12G21   30.02F
COLDWATER      CLOUDY    72  47  41 S7        30.10R
HOLLAND        CLOUDY    72  51  47 S17G24    30.04F
GRAND RAPIDS   CLOUDY    71  52  50 S14       30.05F
KALAMAZOO      CLOUDY    72  48  42 S15       30.08S
MARSHALL       CLOUDY    73  48  41 S10G16    30.09S
MOUNT PLEASANT CLOUDY    72  47  40 SW10G18   30.03F
MUSKEGON       CLOUDY    70  51  51 S18       30.01F
STURGIS        CLOUDY    69  52  53 S10G20    30.10R
$$
MIZ016>042-281600-
NORTHERN LOWER MICHIGAN

CITY           SKY/WX    TMP DP  RH WIND       PRES   REMARKS
ALPENA         MOSUNNY   72  52  49 SW8       30.00S
BEAVER ISLAND  CLOUDY    68  54  60 S8        29.95S
BELLAIRE       CLOUDY    69  50  50 S6        29.97F
CADILLAC       CLOUDY    69  51  53 SW15G25   30.01S
CHARLEVOIX     PTSUNNY   69  53  57 S9G16     29.99F
GAYLORD        CLOUDY    68  48  48 SW14      30.00S
HOUGHTON LAKE  CLOUDY    68  50  52 S10G20    30.02F
MANISTEE       CLOUDY    70  56  61 S8G20     29.94F
OSCODA         MOSUNNY   73  50  44 SW12G20   30.02S
PELLSTON       CLOUDY    70  49  47 SW9       29.98R
TRAVERSE CITY  CLOUDY    71  51  49 SW13G20   29.95F
LUDINGTON      CLOUDY    69  54  57 S18G24    29.95F
$$
MIZ007>008-015-281600-
EASTERN UPPER MICHIGAN

CITY           SKY/WX    TMP DP  RH WIND       PRES   REMARKS
KINROSS        SUNNY     69  54  58 SW8       29.95S
MACKINAC ISLAN CLOUDY    67  54  63 S7        29.96R
NEWBERRY       CLOUDY    64  56  75 S13       29.94R
S. S. MARIE    SUNNY     71  55  56 SW8       29.92F
$$
MIZ004>006-011>014-085-281600-
CENTRAL UPPER MICHIGAN

CITY           SKY/WX    TMP DP  RH WIND       PRES   REMARKS
MANISTIQUE     PTSUNNY   61  58  89 S9G17     29.92F
ESCANABA       CLOUDY    66  56  70 SE12      29.86F
MENOMINEE      CLOUDY    66  55  67 S13       29.84F
SAWYER-GWINN   SUNNY     64  52  63 S12G17    29.86F
$$
MIZ001>003-009>011-084-281600-
WESTERN UPPER MICHIGAN

CITY           SKY/WX    TMP DP  RH WIND       PRES   REMARKS
IRON MOUNTAIN  CLOUDY    65  51  60 SE8       29.82F
HOUGHTON       CLOUDY    66  51  58 SE8       29.78F
COPPER HARBOR    N/A     69  49  48 SW8G17    29.78F
IRONWOOD       CLOUDY    63  52  67 S14G21    29.72F
$$

ABBREVIATIONS USED IN REMARKS
   TC - TEMPERATURE IN CELSIUS
  WCI - WIND CHILL INDEX
   HX - HEAT INDEX
  VSB - VISIBILITY





USA.gov is the U.S. government's official web portal to all federal, state and local government web resources and services.